Find Starlink 32402

NORAD ID: 61708 Int'l Des: 2024-196 Owner: SPXS Country: US Constellation: starlink operational
LEOCIRCULAR

Current View

Loading 3D Globe...

About Starlink 32402

Starlink 32402 (NORAD 61708) is a starlink constellation satellite (v2 mini) launched Oct 30, 2024 by SPXS of US. It operates in LEO, CIRCULAR orbit with a mass of 730.00 kg.

Upcoming Passes

Passes for default location (London). Set your location on the main map for personalized predictions.

Altitude History

Loading altitude history...

Two-Line Element Set

1 61708U 24196B 26235.86836062 .00000968 00000-0 39772-4 0 9996
2 61708 53.1601 42.6052 0000972 86.3719 273.7395 15.34393839102783
Epoch: Aug 23, 2026 • Age: 11 hours

Current Status

Altitude 467.1 km
Apogee / Perigee N/A
Velocity 7.64 km/s
Sub-Earth Point 46.26°N, 2.01°W
Launch Date Oct 30, 2024
Age 1.8 years
Type internet

Technical Details

Classification Payload
Mass 730.00 kg
Dry Mass 700.00 kg
Total Mass 730.00 kg
Length 0.30 m
Diameter 4.10 m
Span 29.00 m
Shape Box + pan
Manufacturer SPXS
Bus Type Starlink V2M
Phase Status In Orbit
Owner/State SPXS/US

Most Searched